Tracking 30061 objects as of 8-Dec-2024
HD Live streaming from Space Station
objects crossing your sky now

STARLINK-5402

Track STARLINK-5402 now!
10-day predictions
STARLINK-5402 is classified as:


NORAD ID: 54869
Int'l Code: 2022-177BB
Perigee: 565.4 km
Apogee: 567.0 km
Inclination: 43.0 °
Period: 95.8 minutes
Semi major axis: 6937 km
RCS: Unknown
Launch date: December 28, 2022
Source: United States (US)
Launch site: AIR FORCE EASTERN TEST RANGE (AFETR)
Your satellite tracking list
Your tracking list is empty




NASA's NSSDC Master Catalog

Two Line Element Set (TLE):
1 54869U 22177BB  24342.69116036  .00000219  00000-0  31312-4 0  9994
2 54869  43.0053  83.2811 0001170 265.5922  94.4787 15.02535404108368
Source of the keplerian elements: AFSPC